Címlap Időjárás Ferihegy, Budapest Airport időjárás előrejelzés – METAR, TAF BUD/LHBP

Időjárás Ferihegy, Budapest Airport időjárás előrejelzés – METAR, TAF BUD/LHBP

Aktuális szöveges időjárásjelentés / METAR BUD/LHBP, és 24 órás szöveges időjárás-előrejelzés / TAF BUD/LHBP Budapest Liszt Ferenc Nemzetközi Repülőtér

Available data for LHBP from the past 6 hours
Metar
LHBP 151830Z 34006KT CAVOK 08/02 Q1029 NOSIG

18:30 UTC

Wind: 340° 6kt

Visibility:

Sky:

Temp: 8 deg C / 46.4 deg F

Dewpoint: 2 deg C / 35.6 deg F

Pressure: 1029 hPa

TAF
TAF LHBP 151715Z 1518/1618 01006KT CAVOK BECMG 1607/1609 06009KT BECMG 1615/1617 02005KT

Szélirány és erősség Ferihegy és környéke

Európa műholdkép


6 napos időjárás előrejelzés – Budapest Ferihegy Airport


Data is taken from the National Weather Service at NOAA. Satelite image by AustroControl & Meteo-Mc. Only for spotters, do not use for real flight!

A METAR és a TAF adatok a National Weather Service adatbázisából származnak. Az oldalon közölt adatok tájékoztató jellegűek, az oldal üzemeltetője nem vállal felelősséget ezek esetleges pontatlanságáért. Ne használd valós repüléshez!

Néhány hasznos infó, mielőtt repülőre szállsz